Weather History for Pineville, WV

Change the Weather History Date:

Friday, July 12, 2013

  Actual Average (KBKW) Record (KBKW)
Temperature  
Mean Temperature 72 °F 71 °F  
Max Temperature 82 °F 80 °F 92 °F (1936)
Min Temperature 62 °F 62 °F 42 °F (1939)
Degree Days  
Heating Degree Days 0 0  
Month to date heating degree days 0  
Since 1 June heating degree days 39  
Since 1 July heating degree days 0  
Cooling Degree Days 7 6  
Month to date cooling degree days 72  
Year to date cooling degree days 224  
Since 1 June cooling degree days 183  
Growing Degree Days 22 (Base 50)    
Moisture  
Dew Point 67 °F    
Average Humidity 88    
Maximum Humidity 100    
Minimum Humidity 59    
Precipitation  
Precipitation 0.00 in 0.17 in 1.42 in (1976)
Month to date precipitation 1.84  
Year to date precipitation 23.00  
Snow  
Snow 0.00 in - - ()
Month to date snowfall  
Since 1 September snowfall  
Snow Depth -    
Sea Level Pressure  
Sea Level Pressure 30.08 in    
Wind  
Wind Speed - (North)    
Max Wind Speed -    
Max Gust Speed -    
Visibility 8 miles    
Events Rain    
T = Trace of Precipitation, MM = Missing Value Source: NWS Daily Summary

Daily Weather History Graph

Daily Weather History Graph

Search for Another Location

Airport:

Trip Planner

Search our weather history database for the weather conditions in past years. The results will help you decide how hot, cold, wet, or windy it might be!

Date:

Astronomy

Jul. 12, 2013 Rise Set
Actual Time 6:14 AM EDT 8:48 PM EDT
Civil Twilight 5:44 AM EDT 9:19 PM EDT
Nautical Twilight 5:06 AM EDT 9:56 PM EDT
Astronomical Twilight 4:24 AM EDT 10:38 PM EDT
Moon 10:24 AM EDT (7/12) 11:04 PM EDT (7/12)
Length of Visible Light 15h 34m
Length of Day
14h 33m
Waxing Crescent, 17% of the Moon is Illuminated
Jul 12
Waxing Crescent
Jul 15
First Quarter
Jul 22
Full
Jul 29
Last Quarter
Aug 6
New

Hourly Weather History & Observations

Time (EDT) Temp. Heat Index Dew Point Humidity Pressure Visibility Wind Dir Wind Speed Gust Speed Precip Events Conditions
12:15 AM 68.9 °F - 68.9 °F 100% 30.03 in 7.0 mi North - - N/A   Clear
12:35 AM 68.0 °F - 68.0 °F 100% 30.04 in 5.0 mi North - - N/A   Scattered Clouds
12:55 AM 68.0 °F - 68.0 °F 100% 30.03 in 7.0 mi North - - N/A   Scattered Clouds
1:15 AM 67.6 °F - 67.6 °F 100% 30.04 in 5.0 mi North - - N/A   Scattered Clouds
1:35 AM 67.5 °F - 67.5 °F 100% 30.04 in 7.0 mi North - - N/A   Scattered Clouds
1:55 AM 67.1 °F - 67.1 °F 100% 30.04 in 7.0 mi North - - N/A   Mostly Cloudy
2:15 AM 67.1 °F - 67.1 °F 100% 30.04 in 5.0 mi North - - N/A   Overcast
2:35 AM 67.1 °F - 67.1 °F 100% 30.03 in 7.0 mi North - - N/A   Overcast
2:55 AM 66.7 °F - 66.7 °F 100% 30.04 in 5.0 mi North - - N/A   Mostly Cloudy
3:15 AM 66.2 °F - 66.2 °F 100% 30.04 in 5.0 mi North - - N/A   Scattered Clouds
3:35 AM 66.4 °F - 66.4 °F 100% 30.03 in 7.0 mi North - - N/A   Mostly Cloudy
3:55 AM 66.7 °F - 66.7 °F 100% 30.03 in 7.0 mi North - - N/A   Overcast
4:15 AM 66.7 °F - 66.7 °F 100% 30.03 in 7.0 mi North - - N/A   Overcast
4:35 AM 67.1 °F - 67.1 °F 100% 30.02 in 7.0 mi North - - N/A   Overcast
4:55 AM 66.7 °F - 66.7 °F 100% 30.03 in 5.0 mi North - - N/A   Overcast
5:15 AM 66.9 °F - 66.9 °F 100% 30.03 in 7.0 mi North - - N/A   Overcast
5:35 AM 67.1 °F - 67.1 °F 100% 30.03 in 5.0 mi North - - N/A   Overcast
5:55 AM 67.3 °F - 67.3 °F 100% 30.04 in 5.0 mi North - - N/A   Overcast
6:15 AM 67.5 °F - 67.5 °F 100% 30.05 in 5.0 mi North - - N/A   Overcast
6:35 AM 67.6 °F - 67.6 °F 100% 30.05 in 5.0 mi North - - N/A   Overcast
6:55 AM 68.0 °F - 68.0 °F 100% 30.06 in 4.0 mi North - - N/A   Overcast
7:15 AM 68.4 °F - 68.4 °F 100% 30.06 in 5.0 mi North - - N/A   Overcast
7:35 AM 68.2 °F - 68.2 °F 100% 30.06 in 5.0 mi North - - N/A   Overcast
7:55 AM 68.9 °F - 68.9 °F 100% 30.07 in 7.0 mi North - - N/A   Overcast
8:15 AM 68.9 °F - 68.7 °F 99% 30.08 in 7.0 mi North - - N/A   Overcast
8:35 AM 69.8 °F - 69.1 °F 98% 30.08 in 7.0 mi North - - N/A   Overcast
8:55 AM 69.8 °F - 68.9 °F 97% 30.08 in 7.0 mi North - - N/A   Overcast
9:15 AM 70.7 °F - 68.7 °F 93% 30.08 in 7.0 mi North - - N/A   Overcast
9:35 AM 71.6 °F - 68.2 °F 89% 30.09 in 7.0 mi North - - N/A   Overcast
9:55 AM 71.1 °F - 67.3 °F 88% 30.10 in 10.0 mi North - - N/A   Overcast
10:15 AM 72.3 °F - 67.5 °F 85% 30.09 in 10.0 mi North - - N/A   Overcast
10:35 AM 73.0 °F - 67.5 °F 83% 30.09 in 10.0 mi North - - N/A   Overcast
10:55 AM 72.7 °F - 67.5 °F 84% 30.09 in 10.0 mi North - - N/A   Overcast
11:15 AM 73.4 °F - 67.8 °F 83% 30.10 in 10.0 mi North - - N/A   Overcast
11:35 AM 74.3 °F - 67.5 °F 79% 30.09 in 10.0 mi North - - N/A   Overcast
11:55 AM 75.0 °F - 68.0 °F 79% 30.09 in 10.0 mi North - - N/A   Overcast
12:15 PM 74.3 °F - 66.7 °F 77% 30.10 in 10.0 mi North - - N/A   Mostly Cloudy
12:35 PM 75.7 °F - 66.9 °F 74% 30.09 in 10.0 mi North - - N/A   Mostly Cloudy
12:55 PM 78.8 °F - 67.6 °F 68% 30.09 in 10.0 mi North - - N/A   Mostly Cloudy
1:15 PM 76.5 °F - 66.7 °F 72% 30.09 in 10.0 mi North - - N/A   Overcast
1:35 PM 76.3 °F - 66.4 °F 71% 30.09 in 10.0 mi North - - N/A   Overcast
1:55 PM 81.1 °F 83.5 °F 67.1 °F 62% 30.08 in 10.0 mi North - - N/A   Scattered Clouds
2:15 PM 78.4 °F - 67.5 °F 69% 30.08 in 10.0 mi North - - N/A   Mostly Cloudy
2:35 PM 80.2 °F 82.7 °F 67.6 °F 65% 30.08 in 10.0 mi North - - N/A   Scattered Clouds
2:55 PM 81.0 °F 83.4 °F 67.3 °F 63% 30.08 in 10.0 mi North - - N/A   Scattered Clouds
3:15 PM 81.1 °F 83.4 °F 66.7 °F 61% 30.08 in 10.0 mi North - - N/A   Scattered Clouds
3:35 PM 79.9 °F - 66.4 °F 63% 30.07 in 10.0 mi North - - N/A   Mostly Cloudy
3:55 PM 81.3 °F 83.5 °F 66.2 °F 60% 30.06 in 10.0 mi North - - N/A   Scattered Clouds
4:15 PM 79.7 °F - 66.2 °F 63% 30.06 in 10.0 mi North - - N/A   Scattered Clouds
4:35 PM 81.1 °F 83.7 °F 67.5 °F 63% 30.06 in 10.0 mi North - - N/A   Clear
4:55 PM 82.4 °F 84.8 °F 66.9 °F 59% 30.06 in 10.0 mi North - - N/A   Scattered Clouds
5:15 PM 82.8 °F 85.3 °F 67.1 °F 59% 30.06 in 10.0 mi North - - N/A   Mostly Cloudy
5:35 PM 77.9 °F - 67.3 °F 70% 30.06 in 10.0 mi North - - N/A   Overcast
5:55 PM 77.9 °F - 66.0 °F 67% 30.06 in 10.0 mi North - - N/A   Overcast
6:15 PM 74.8 °F - 69.6 °F 84% 30.06 in 10.0 mi North - - N/A Rain Light Rain
6:35 PM 74.1 °F - 70.3 °F 88% 30.08 in 10.0 mi North - - N/A   Mostly Cloudy
6:55 PM 70.2 °F - 65.3 °F 85% 30.10 in 10.0 mi North - - N/A Rain Rain
7:15 PM 68.0 °F - 63.5 °F 85% 30.10 in 10.0 mi North - - N/A Rain Light Rain
7:35 PM 66.9 °F - 63.7 °F 89% 30.11 in 10.0 mi North - - N/A   Mostly Cloudy
7:55 PM 66.2 °F - 64.4 °F 94% 30.11 in 10.0 mi North - - N/A   Overcast
8:15 PM 65.5 °F - 64.4 °F 96% 30.12 in 10.0 mi North - - N/A   Light Drizzle
8:35 PM 65.3 °F - 64.4 °F 97% 30.12 in 10.0 mi North - - N/A   Mostly Cloudy
8:55 PM 64.8 °F - 64.4 °F 99% 30.11 in 10.0 mi North - - N/A   Clear
9:15 PM 64.8 °F - 63.9 °F 97% 30.12 in 10.0 mi North - - N/A   Clear
9:35 PM 64.4 °F - 63.5 °F 97% 30.13 in 10.0 mi North - - N/A   Scattered Clouds
9:55 PM 63.9 °F - 62.8 °F 96% 30.14 in 10.0 mi North - - N/A   Scattered Clouds
10:15 PM 63.5 °F - 63.1 °F 99% 30.14 in 10.0 mi North - - N/A   Clear
10:35 PM 63.5 °F - 63.0 °F 98% 30.14 in 10.0 mi North - - N/A   Clear
10:55 PM 63.1 °F - 62.8 °F 99% 30.15 in 10.0 mi North - - N/A   Clear
11:15 PM 63.1 °F - 62.8 °F 99% 30.14 in 10.0 mi North - - N/A   Clear
11:35 PM 62.6 °F - 62.6 °F 100% 30.14 in 10.0 mi North - - N/A   Clear
11:55 PM 62.4 °F - 62.4 °F 100% 30.14 in 10.0 mi North - - N/A   Clear